Location: Kermapucano
(48.0667°N, 3.3000°W)
Time: 20:56:57
(UTC+00:00)

Cosmos 1937 Rocket - Pass Details

Date: 29 November 2020
Orbit: 745 x 781 km, 74.0° (Epoch: 27 January)

Event Time Altitude Azimuth Distance (km) Brightness Sun altitude
Rises 06:44:11 0° 226° (SW) 3,184 6.5 -9.1°
Reaches altitude 10° 06:46:42 10° 235° (SW) 2,267 5.6 -8.7°
Maximum altitude 06:51:26 37° 302° (WNW) 1,168 4.0 -8.0°
Drops below altitude 10° 06:56:15 10° 10° (N) 2,299 5.8 -7.3°
Sets 06:58:50 0° 18° (NNE) 3,235 6.7 -6.9°
